Location: Chircca
(13.7944°S, 72.0608°W)
Time: 06:24:47
(UTC+00:00)

Cosmos 2227 Rocket - Pass Details

Date: 14 July 2020
Orbit: 839 x 845 km, 71.0° (Epoch: 14 August)

Event Time Altitude Azimuth Distance (km) Brightness Sun altitude
Exits shadow 10:32:22 - 215° (SW) 2,778 4.4 -10.0°
Reaches altitude 10° 10:33:16 10° 219° (SW) 2,467 4.1 -9.8°
Maximum altitude 10:38:22 36° 283° (WNW) 1,319 2.8 -8.6°
Drops below altitude 10° 10:43:28 10° 348° (NNW) 2,452 4.7 -7.5°
Sets 10:46:05 0° 357° (N) 3,382 5.6 -6.9°
